[[{"header":{"parameterUnit":"m.s-1","parameterCategory":1,"la1":30.2991,"la2":30.254,"lo1":-89.0895,"lo2":-89.0444,"dy":0.0017,"dx":0.0017,"nx":28,"ny":28,"refTime":"2026-01-08T03:00:00:Z","depth":0,"parameterNumber":2,"parameterNumberName":"U-component_of_WINDS"},"data":[0,0,0,0,0,0,0,0,0,0,0,0,0,0,0,0,0,0,0,0,0,0,0,0,0,0,0,0,0,0,0,0,0,0,0,0,0,0,0,0,0,0,0,0,0,0,0,0,0,0,0,0,0,0,0,0,0,0,-1.0123,-1.0122,0,-1.0024,-1.0022,-1.0021,-0.998,-0.998,-0.998,-0.998,-0.9874,-0.9871,-0.9868,0,0,0,0,0,0,0,0,0,0,0,0,0,-1.0275,-1.0273,-1.0123,-1.0122,-1.0121,-1.0024,-1.0022,-1.0021,-0.998,-0.998,-0.998,-0.998,-0.9875,-0.9872,-0.9868,0,0,0,0,0,0,0,0,0,0,0,0,0,-1.0196,-1.0272,-1.0124,-1.0089,-1.0085,-1.0024,-1.0022,-1.0021,-0.998,-0.998,-0.998,-0.9981,-0.9876,-0.9872,-0.9867,-0.9833,0,0,-0.9854,-0.9852,0,0,0,0,0,0,0,0,-1.02,-1.019,-1.0095,-1.0091,-1.0086,-1.0015,-1.0037,-0.9957,-0.998,-1.0019,-0.998,-0.9981,-0.992,-0.9912,-0.9893,-0.9828,-0.9823,-0.9853,-0.985,-0.9848,-0.9847,0,0,0,0,0,0,0,-1.0206,-1.0194,-1.0084,-1.0094,-1.0088,-1.0077,-1.0066,-1.0022,-0.9969,-1.0016,-1.0013,-1.0002,-0.9918,-0.9897,-0.989,-0.9822,-0.9853,-0.9849,-0.9846,-0.9845,-0.9724,-0.9723,0,0,0,0,0,0,-1.0217,-1.0199,-1.0087,-1.0081,-1.0145,-1.0074,-1.0062,-1.0037,-0.997,-0.996,-1.0002,-1.0,-0.9905,-0.9895,-0.9886,-0.9841,-0.9848,-0.9844,-0.9842,-0.9724,-0.9724,-0.9723,0,0,0,0,0,0,-1.0221,-1.0208,-1.0091,-1.0139,-1.0123,-1.0071,-1.0044,-1.0035,-1.0014,-0.9959,-0.9949,-0.999,-0.9905,-0.9892,-0.9847,-0.9836,-0.9842,-0.9838,-0.9725,-0.9724,-0.9723,-0.975,0,0,0,0,0,0,-1.0225,-1.0209,-1.0196,-1.0139,-1.0121,-1.0054,-1.0043,-1.0033,-1.0007,-1.0004,-0.9945,-0.9936,-0.9904,-0.9854,-0.9842,-0.983,-0.9834,-0.9725,-0.9724,-0.9724,-0.975,-0.9751,-0.9751,0,0,0,0,0,-1.0231,-1.0207,-1.0196,-1.0183,-1.0104,-1.0054,-1.0043,-1.0008,-1.0006,-0.9992,-0.9957,-0.9938,-0.984,-0.9849,-0.9836,-0.9823,-0.9726,-0.9725,-0.9724,-0.975,-0.9751,-0.9751,0,0,0,0,0,0,-1.0263,-1.0199,-1.0186,-1.0143,-1.0104,-1.0047,-1.0028,-1.001,-0.997,-0.9969,-0.9926,-0.9913,-0.9871,-0.9842,-0.9854,-0.9786,-0.9781,-0.9777,-0.9806,-0.9806,-0.9807,-0.9814,-0.9831,0,0,0,0,0,-1.0265,-1.0231,-1.0177,-1.0144,-1.0125,-1.008,-1.0057,-1.0034,-0.9992,-0.9975,-0.9936,-0.9895,-0.9854,-0.9829,-0.9789,-0.9746,-0.9732,-0.9731,-0.9731,-0.9732,-0.9729,-0.9704,-0.9702,-0.9719,-0.9719,-0.9719,0,0,-1.0269,-1.023,-1.021,-1.0149,-1.0117,-1.0081,-1.0067,-1.003,-1.0003,-0.9969,-0.9923,-0.9894,-0.9845,-0.9801,-0.9779,-0.9775,-0.9721,-0.9731,-0.9732,-0.9728,-0.9702,-0.9701,-0.9699,-0.9719,-0.9719,-0.9719,0,0,-1.0257,-1.0225,-1.0194,-1.0162,-1.0114,-1.0084,-1.0077,-1.0023,-1.0002,-0.9956,-0.993,-0.9897,-0.9829,-0.9795,-0.9769,-0.9747,-0.9728,-0.9735,-0.9737,-0.9713,-0.9712,-0.9711,-0.9702,-0.9699,-0.9732,-0.9732,-0.9732,0,-1.0267,-1.0215,-1.018,-1.0145,-1.0119,-1.0088,-1.0056,-1.0026,-0.9967,-0.9949,-0.9946,-0.9861,-0.9825,-0.9773,-0.9768,-0.9748,-0.9737,-0.9741,-0.9715,-0.9713,-0.9712,-0.9703,-0.97,-0.9734,-0.9733,-0.9733,-0.9733,0,-1.0229,-1.0193,-1.0174,-1.0119,-1.009,-1.0057,-1.0017,-0.9992,-0.9972,-0.9942,-0.9896,-0.9853,-0.9804,-0.979,-0.9769,-0.9735,-0.9734,-0.9724,-0.9718,-0.9712,-0.9703,-0.9699,-0.9735,-0.9735,-0.9735,-0.9734,0,0,-1.0233,-1.0161,-1.0154,-1.0129,-1.0074,-1.0045,-1.001,-0.9964,-0.9943,-0.9904,-0.9872,-0.9817,-0.9807,-0.9778,-0.9753,-0.9733,-0.9717,-0.9725,-0.9723,-0.9724,-0.9676,-0.9683,-0.9679,-0.9705,-0.9704,-0.9703,-0.9679,0,-1.0213,-1.0151,-1.012,-1.007,-1.0036,-1.0007,-0.9977,-0.9939,-0.9911,-0.9877,-0.9846,-0.9807,-0.9798,-0.978,-0.9759,-0.9724,-0.9706,-0.9725,-0.9674,-0.9673,-0.9686,-0.9675,-0.9682,-0.9661,-0.9676,-0.9675,-0.9675,0,-1.0182,-1.0144,-1.0092,-1.0042,-1.0026,-0.9999,-0.9955,-0.9923,-0.988,-0.9861,-0.9829,-0.9805,-0.9767,-0.9766,-0.9711,-0.9725,-0.9702,-0.9682,-0.968,-0.9673,-0.9672,-0.9666,-0.9654,-0.9651,-0.9669,-0.9669,-0.967,0,-1.0189,-1.0125,-1.0086,-1.0065,-1.0006,-0.9988,-0.9962,-0.9919,-0.9894,-0.9854,-0.9837,-0.9793,-0.9769,-0.9736,-0.97,-0.9703,-0.9649,-0.9645,-0.9631,-0.9632,-0.962,-0.9621,-0.9603,-0.9608,-0.9608,-0.9608,-0.9608,0,-1.0169,-1.0138,-1.0088,-1.0064,-1.0028,-0.9992,-0.9957,-0.9929,-0.9892,-0.9861,-0.9833,-0.9804,-0.976,-0.9726,-0.9698,-0.9657,-0.9646,-0.9629,-0.9622,-0.9631,-0.9633,-0.9614,-0.9614,-0.9607,-0.9607,-0.9607,-0.9608,0,-1.017,-1.0136,-1.0091,-1.0039,-1.0025,-1.0001,-0.9956,-0.9931,-0.9902,-0.9863,-0.9852,-0.9807,-0.9765,-0.9727,-0.9671,-0.9652,-0.961,-0.9601,-0.9625,-0.9621,-0.9609,-0.961,-0.9577,-0.957,-0.9581,-0.9581,-0.9581,0,-1.0159,-1.0135,-1.0081,-1.0059,-1.0035,-0.9999,-0.9973,-0.9938,-0.9912,-0.9862,-0.9842,-0.9799,-0.9762,-0.9696,-0.9657,-0.9614,-0.9603,-0.9595,-0.9597,-0.9607,-0.9602,-0.9603,-0.96,-0.9595,-0.9595,-0.9595,-0.9595,0,-1.0143,-1.0128,-1.0093,-1.0051,-1.0022,-0.9987,-0.9952,-0.9935,-0.9893,-0.9865,-0.9822,-0.9794,-0.9738,-0.9694,-0.9647,-0.962,-0.96,-0.9595,-0.959,-0.9598,-0.9612,-0.9603,-0.9624,-0.9596,-0.9596,-0.9596,-0.9595,-0.9595,-1.0137,-1.0114,-1.0073,-1.0035,-1.0005,-0.9973,-0.9947,-0.9916,-0.988,-0.9833,-0.9814,-0.977,-0.9728,-0.9663,-0.9636,-0.9601,-0.9597,-0.9589,-0.9586,-0.9585,-0.9586,-0.9619,-0.9592,-0.9592,-0.9592,-0.9592,-0.9592,0,-1.0119,-1.0092,-1.0057,-1.0009,-0.9979,-0.9965,-0.9926,-0.9901,-0.9864,-0.9827,-0.9792,-0.9743,-0.9701,-0.966,-0.9616,-0.9596,-0.9586,-0.9585,-0.9586,-0.9579,-0.9592,-0.9601,-0.9595,-0.9595,-0.9595,-0.9595,-0.9595,-0.9595,-1.0106,-1.0066,-1.0046,-0.9992,-0.9964,-0.9923,-0.9901,-0.9871,-0.9842,-0.9789,-0.9755,-0.9729,-0.969,-0.9643,-0.9604,-0.9593,-0.9578,-0.958,-0.9566,-0.9578,-0.9579,-0.9579,-0.9587,-0.9577,-0.9577,-0.9556,-0.9556,-0.9555]},{"header":{"parameterUnit":"m.s-1","parameterCategory":1,"la1":30.2991,"la2":30.254,"lo1":-89.0895,"lo2":-89.0444,"dy":0.0017,"dx":0.0017,"nx":28,"ny":28,"refTime":"2026-01-08T03:00:00:Z","depth":0,"parameterNumber":3,"parameterNumberName":"V-component_of_WINDS"},"data":[0,0,0,0,0,0,0,0,0,0,0,0,0,0,0,0,0,0,0,0,0,0,0,0,0,0,0,0,0,0,0,0,0,0,0,0,0,0,0,0,0,0,0,0,0,0,0,0,0,0,0,0,0,0,0,0,0,0,1.9991,1.999,0,1.9963,1.9963,1.9963,1.9918,1.9917,1.9916,1.9915,1.9886,1.9886,1.9886,0,0,0,0,0,0,0,0,0,0,0,0,0,2.0005,2.0005,1.9991,1.999,1.999,1.9963,1.9963,1.9962,1.9918,1.9917,1.9916,1.9915,1.9886,1.9886,1.9886,0,0,0,0,0,0,0,0,0,0,0,0,0,1.999,2.0005,1.9991,1.9965,1.9962,1.9963,1.9963,1.9962,1.9918,1.9917,1.9916,1.9914,1.9886,1.9886,1.9886,1.9911,0,0,1.9886,1.9886,0,0,0,0,0,0,0,0,1.9991,1.9989,1.9969,1.9966,1.9963,1.9943,1.9957,1.9945,1.9918,1.9935,1.9915,1.9914,1.9906,1.9904,1.9902,1.9909,1.9908,1.9886,1.9886,1.9886,1.9886,0,0,0,0,0,0,0,1.9992,1.999,1.998,1.9968,1.9965,1.9954,1.9951,1.9955,1.9927,1.9933,1.993,1.9927,1.9904,1.9902,1.9901,1.9908,1.9886,1.9886,1.9886,1.9886,1.9935,1.9937,0,0,0,0,0,0,1.9997,1.9992,1.9981,1.9979,1.9974,1.9955,1.9951,1.9951,1.9927,1.9923,1.9928,1.9925,1.9902,1.9901,1.9899,1.9928,1.9886,1.9886,1.9886,1.9934,1.9936,1.9937,0,0,0,0,0,0,1.9997,1.9996,1.9982,1.9984,1.9982,1.9956,1.9956,1.9951,1.9948,1.9924,1.9919,1.9931,1.9901,1.99,1.9909,1.9926,1.9886,1.9886,1.9933,1.9935,1.9936,1.9984,0,0,0,0,0,0,1.9998,1.9997,2.0006,1.9985,1.9982,1.9992,1.9957,1.9951,1.9948,1.9944,1.9925,1.992,1.99,1.9909,1.9909,1.9925,1.9886,1.9931,1.9933,1.9936,1.9981,1.9987,1.9993,0,0,0,0,0,1.9999,2.002,2.0006,2.0005,1.9993,1.9993,1.9991,1.9968,1.995,1.9959,1.9943,1.9921,1.9924,1.991,1.9909,1.9926,1.993,1.9933,1.9936,1.9978,1.9986,1.9993,0,0,0,0,0,0,2.0043,2.0017,2.0001,2.0017,2.0007,1.9985,1.9996,1.9977,1.9972,1.9968,1.9939,1.9935,1.9948,1.9938,1.9923,1.995,1.9923,1.9926,1.9956,1.9963,1.9969,1.9972,1.9886,0,0,0,0,0,2.0054,2.0057,2.0034,2.0049,2.0045,2.0022,2.0021,2.0004,1.9993,1.9988,1.9973,1.9964,1.9962,1.9962,1.9959,1.9979,1.9975,1.999,1.9996,2.0001,2.0005,2.0015,2.0022,1.9947,1.9947,1.9947,0,0,2.0078,2.0064,2.0067,2.0058,2.0049,2.0052,2.0018,2.0023,2.0025,1.9989,1.9997,1.9986,1.9973,1.9988,1.9993,1.998,2.0025,2.0005,2.001,2.001,2.0019,2.0026,2.0033,1.9949,1.9948,1.9948,0,0,2.0124,2.0113,2.0125,2.0117,2.0104,2.0088,2.0091,2.0072,2.0063,2.0071,2.0044,2.0046,2.0045,2.0037,2.0033,2.0077,2.0056,2.0076,2.0109,2.0119,2.0125,2.0131,2.0147,2.0154,2.0079,2.008,2.008,0,2.0155,2.0159,2.0134,2.0141,2.0138,2.0106,2.0118,2.0111,2.0098,2.0097,2.0081,2.0079,2.0068,2.0081,2.0092,2.009,2.0093,2.0079,2.0127,2.0132,2.0136,2.0152,2.0158,2.0082,2.0082,2.0082,2.0081,0,2.0199,2.0202,2.0214,2.0202,2.0201,2.021,2.0187,2.0188,2.0171,2.0157,2.0166,2.0152,2.0147,2.0148,2.0131,2.0159,2.0151,2.0132,2.0105,2.0146,2.0161,2.0166,2.0086,2.0085,2.0084,2.0084,0,0,2.0271,2.0247,2.0251,2.0246,2.023,2.0232,2.024,2.0236,2.0238,2.0229,2.0236,2.0236,2.0219,2.0214,2.0196,2.0206,2.0243,2.0185,2.0184,2.0197,2.0274,2.029,2.0297,2.0229,2.023,2.0231,2.0276,0,2.0314,2.0328,2.0306,2.0324,2.0328,2.0297,2.0305,2.0296,2.0283,2.0284,2.0269,2.027,2.0246,2.0244,2.0251,2.0237,2.0258,2.0233,2.0236,2.0236,2.0241,2.0304,2.032,2.0363,2.0281,2.0282,2.0282,0,2.0366,2.0361,2.038,2.0364,2.0364,2.0371,2.0366,2.0367,2.0356,2.0346,2.0342,2.0321,2.0329,2.0303,2.0313,2.0297,2.0297,2.029,2.0291,2.0291,2.0262,2.0307,2.0376,2.0383,2.0291,2.029,2.0289,0,2.0418,2.0417,2.0428,2.0425,2.0405,2.0411,2.0403,2.0391,2.039,2.0385,2.0384,2.038,2.0378,2.0376,2.0355,2.0338,2.0369,2.034,2.0361,2.0362,2.037,2.037,2.0441,2.0368,2.0368,2.0368,2.0368,0,2.0469,2.0482,2.0452,2.0459,2.0473,2.0448,2.0463,2.0452,2.0441,2.0446,2.0419,2.0425,2.0396,2.0399,2.0382,2.0394,2.0393,2.0386,2.0381,2.0389,2.039,2.0389,2.0386,2.0369,2.0369,2.0369,2.0368,0,2.053,2.051,2.0521,2.0502,2.0497,2.0509,2.0492,2.0499,2.0484,2.0491,2.0491,2.0469,2.047,2.0449,2.0446,2.0435,2.0455,2.0444,2.0459,2.0456,2.0478,2.0477,2.0552,2.0561,2.0482,2.0483,2.0483,0,2.0564,2.0574,2.0556,2.0557,2.0551,2.0554,2.0553,2.0528,2.0529,2.0518,2.0525,2.0525,2.0523,2.0527,2.051,2.0508,2.0498,2.0525,2.0498,2.0505,2.05,2.05,2.0502,2.0531,2.0532,2.0533,2.0533,0,2.0627,2.0617,2.0616,2.0613,2.0613,2.0609,2.0604,2.0606,2.058,2.0582,2.0583,2.0582,2.0579,2.0579,2.0574,2.0566,2.0546,2.0542,2.0547,2.0555,2.0563,2.056,2.0475,2.054,2.054,2.0539,2.0539,2.0539,2.0676,2.0684,2.0673,2.0674,2.0667,2.0663,2.0668,2.0655,2.0656,2.0652,2.0638,2.0642,2.0632,2.0623,2.0617,2.062,2.0607,2.0614,2.0616,2.0618,2.0623,2.0562,2.0619,2.0619,2.0619,2.0618,2.0618,0,2.0739,2.073,2.0732,2.0725,2.0726,2.0707,2.07,2.0702,2.0706,2.0699,2.0698,2.07,2.07,2.0684,2.0683,2.0688,2.0679,2.0689,2.0689,2.0688,2.0634,2.0631,2.0697,2.0697,2.0697,2.0697,2.0697,2.0697,2.0771,2.0784,2.0773,2.0782,2.0773,2.0778,2.0776,2.0772,2.0766,2.077,2.077,2.0759,2.0749,2.0746,2.0746,2.0741,2.0742,2.0756,2.0748,2.0699,2.0691,2.0684,2.068,2.0756,2.0756,2.0801,2.0801,2.0802]}]]